[[{"header":{"parameterUnit":"m.s-1","parameterCategory":1,"la1":30.2991,"la2":30.254,"lo1":-89.0895,"lo2":-89.0444,"dy":0.0017,"dx":0.0017,"nx":28,"ny":28,"refTime":"2025-01-26T03:00:00:Z","depth":0,"parameterNumber":2,"parameterNumberName":"U-component_of_WINDS"},"data":[0,0,0,0,0,0,0,0,0,0,0,0,0,0,0,0,0,0,0,0,0,0,0,0,0,0,0,0,0,0,0,0,0,0,0,0,0,0,0,0,0,0,0,0,0,0,0,0,0,0,0,0,0,0,0,0,0,0,-2.0922,-2.0922,0,-2.0985,-2.0986,-2.0987,-2.0984,-2.0983,-2.0982,-2.0981,-2.1048,-2.105,-2.1053,0,0,0,0,0,0,0,0,0,0,0,0,0,-2.0798,-2.08,-2.0922,-2.0922,-2.0923,-2.0985,-2.0986,-2.0987,-2.0984,-2.0983,-2.0982,-2.0981,-2.1047,-2.105,-2.1053,0,0,0,0,0,0,0,0,0,0,0,0,0,-2.0855,-2.0801,-2.0921,-2.0929,-2.093,-2.0985,-2.0986,-2.0987,-2.0984,-2.0983,-2.0982,-2.098,-2.1046,-2.1049,-2.1053,-2.1105,0,0,-2.1065,-2.1067,0,0,0,0,0,0,0,0,-2.0852,-2.086,-2.0927,-2.0929,-2.093,-2.0975,-2.0967,-2.1027,-2.0985,-2.0964,-2.0981,-2.098,-2.1025,-2.103,-2.1045,-2.1108,-2.1111,-2.1066,-2.1068,-2.107,-2.1071,0,0,0,0,0,0,0,-2.0848,-2.0857,-2.0947,-2.0928,-2.093,-2.093,-2.0936,-2.0978,-2.1001,-2.0966,-2.0966,-2.0973,-2.1025,-2.1041,-2.1047,-2.1112,-2.1066,-2.1069,-2.1071,-2.1073,-2.1219,-2.1221,0,0,0,0,0,0,-2.0842,-2.0854,-2.0945,-2.0949,-2.0887,-2.0933,-2.094,-2.0962,-2.1001,-2.1005,-2.0974,-2.0973,-2.1035,-2.1042,-2.1049,-2.1111,-2.107,-2.1073,-2.1076,-2.1218,-2.122,-2.1221,0,0,0,0,0,0,-2.084,-2.0851,-2.0942,-2.0901,-2.0913,-2.0937,-2.0961,-2.0964,-2.098,-2.1007,-2.1011,-2.0986,-2.1035,-2.1044,-2.1091,-2.1113,-2.1075,-2.1079,-2.1216,-2.1218,-2.122,-2.1236,0,0,0,0,0,0,-2.0836,-2.085,-2.0869,-2.0902,-2.0915,-2.0983,-2.0962,-2.0966,-2.0987,-2.0986,-2.102,-2.1024,-2.1034,-2.1085,-2.1095,-2.1118,-2.1082,-2.1214,-2.1217,-2.122,-2.1233,-2.1238,-2.1242,0,0,0,0,0,-2.0832,-2.0871,-2.087,-2.0881,-2.094,-2.0984,-2.0992,-2.1002,-2.0989,-2.1009,-2.1026,-2.1023,-2.111,-2.109,-2.1101,-2.1125,-2.1212,-2.1216,-2.1219,-2.1231,-2.1237,-2.1242,0,0,0,0,0,0,-2.0841,-2.0876,-2.0875,-2.0926,-2.0952,-2.0983,-2.1009,-2.1008,-2.1039,-2.1036,-2.1049,-2.1056,-2.1103,-2.1119,-2.1097,-2.1177,-2.1159,-2.1165,-2.1164,-2.117,-2.1175,-2.1169,-2.1085,0,0,0,0,0,-2.0849,-2.0881,-2.091,-2.0953,-2.0966,-2.0985,-2.1004,-2.101,-2.1038,-2.1049,-2.107,-2.1096,-2.113,-2.1151,-2.1183,-2.1236,-2.1243,-2.1259,-2.1263,-2.1267,-2.1271,-2.1299,-2.1306,-2.1232,-2.1232,-2.1232,0,0,-2.0866,-2.0889,-2.0909,-2.0955,-2.0976,-2.1009,-2.0994,-2.103,-2.1055,-2.1054,-2.11,-2.1116,-2.1147,-2.1197,-2.122,-2.1212,-2.1293,-2.1271,-2.1274,-2.1276,-2.1304,-2.1311,-2.1317,-2.1235,-2.1234,-2.1234,0,0,-2.0913,-2.0934,-2.0971,-2.0992,-2.1024,-2.1036,-2.1045,-2.1077,-2.1087,-2.1133,-2.1133,-2.1163,-2.122,-2.1242,-2.1261,-2.1316,-2.1314,-2.1327,-2.135,-2.1377,-2.1383,-2.1388,-2.1407,-2.1414,-2.1331,-2.1331,-2.1331,0,-2.093,-2.098,-2.099,-2.1026,-2.1046,-2.1048,-2.1085,-2.1105,-2.1146,-2.116,-2.115,-2.1221,-2.1243,-2.1297,-2.131,-2.1326,-2.1336,-2.1322,-2.1382,-2.1387,-2.1392,-2.141,-2.1417,-2.1332,-2.1332,-2.1332,-2.1332,0,-2.0998,-2.1033,-2.1059,-2.1097,-2.1121,-2.1158,-2.1174,-2.1197,-2.1201,-2.1214,-2.1261,-2.1286,-2.1323,-2.1337,-2.1341,-2.1392,-2.1386,-2.1379,-2.1361,-2.14,-2.1417,-2.1424,-2.1334,-2.1334,-2.1333,-2.1333,0,0,-2.1052,-2.1096,-2.1105,-2.1122,-2.1157,-2.1184,-2.1221,-2.1257,-2.1275,-2.1304,-2.1334,-2.1383,-2.1377,-2.1398,-2.1405,-2.1429,-2.147,-2.1419,-2.142,-2.1427,-2.1527,-2.153,-2.1538,-2.147,-2.1471,-2.1473,-2.1523,0,-2.1102,-2.1166,-2.1177,-2.1234,-2.1265,-2.1267,-2.1299,-2.1324,-2.1338,-2.1367,-2.1383,-2.1416,-2.1406,-2.1419,-2.1443,-2.146,-2.149,-2.1457,-2.1498,-2.1499,-2.1489,-2.1547,-2.1552,-2.1598,-2.153,-2.1532,-2.1532,0,-2.1168,-2.1197,-2.1257,-2.1287,-2.1301,-2.1329,-2.1362,-2.139,-2.1419,-2.1427,-2.1451,-2.1455,-2.1493,-2.1475,-2.1528,-2.1504,-2.1522,-2.1534,-2.1536,-2.1539,-2.1517,-2.1551,-2.1614,-2.162,-2.1543,-2.1542,-2.1542,0,-2.12,-2.1254,-2.1297,-2.1311,-2.1348,-2.1368,-2.1384,-2.1411,-2.1432,-2.1461,-2.1474,-2.1508,-2.1527,-2.1553,-2.1566,-2.1552,-2.1618,-2.1601,-2.1625,-2.1625,-2.1638,-2.1636,-2.1703,-2.1652,-2.1652,-2.1651,-2.1651,0,-2.1253,-2.1289,-2.1311,-2.1337,-2.1377,-2.139,-2.1429,-2.1445,-2.1469,-2.1498,-2.1503,-2.153,-2.1547,-2.1577,-2.1588,-2.1629,-2.1638,-2.1645,-2.1648,-2.1644,-2.1643,-2.1655,-2.1651,-2.1653,-2.1653,-2.1653,-2.1652,0,-2.1295,-2.1311,-2.1357,-2.1388,-2.1396,-2.1425,-2.1451,-2.1476,-2.149,-2.1527,-2.1536,-2.1559,-2.1594,-2.161,-2.1654,-2.1662,-2.1708,-2.1709,-2.1698,-2.1699,-2.1722,-2.1719,-2.1797,-2.1808,-2.1751,-2.1751,-2.1752,0,-2.1327,-2.1355,-2.1388,-2.1408,-2.1424,-2.1456,-2.1477,-2.1491,-2.1512,-2.1546,-2.1567,-2.1603,-2.1632,-2.1688,-2.1708,-2.1742,-2.1742,-2.1768,-2.1747,-2.1743,-2.1741,-2.1739,-2.1741,-2.1771,-2.1771,-2.1772,-2.1772,0,-2.1382,-2.1389,-2.1419,-2.1451,-2.1476,-2.1502,-2.1528,-2.1544,-2.1562,-2.1586,-2.1621,-2.1644,-2.1688,-2.1723,-2.1758,-2.1775,-2.1776,-2.1779,-2.1786,-2.1782,-2.1774,-2.1777,-2.1707,-2.1776,-2.1776,-2.1776,-2.1775,-2.1775,-2.1419,-2.1444,-2.1471,-2.1503,-2.1524,-2.1548,-2.1573,-2.159,-2.162,-2.1657,-2.1664,-2.1701,-2.1729,-2.1776,-2.1795,-2.1825,-2.1819,-2.1829,-2.1832,-2.1834,-2.1835,-2.177,-2.1831,-2.1831,-2.1831,-2.1831,-2.1831,0,-2.1474,-2.1491,-2.1521,-2.1557,-2.1583,-2.1582,-2.161,-2.1632,-2.1665,-2.1691,-2.1719,-2.176,-2.1794,-2.1817,-2.1851,-2.187,-2.1872,-2.1879,-2.1877,-2.1881,-2.1839,-2.1828,-2.1877,-2.1877,-2.1877,-2.1877,-2.1877,-2.1877,-2.1505,-2.1545,-2.1555,-2.1606,-2.1623,-2.166,-2.1676,-2.1698,-2.1719,-2.1764,-2.1792,-2.1807,-2.1831,-2.1867,-2.1898,-2.1904,-2.1916,-2.1923,-2.1929,-2.1889,-2.1884,-2.1879,-2.1869,-2.1926,-2.1926,-2.1968,-2.1969,-2.1969]},{"header":{"parameterUnit":"m.s-1","parameterCategory":1,"la1":30.2991,"la2":30.254,"lo1":-89.0895,"lo2":-89.0444,"dy":0.0017,"dx":0.0017,"nx":28,"ny":28,"refTime":"2025-01-26T03:00:00:Z","depth":0,"parameterNumber":3,"parameterNumberName":"V-component_of_WINDS"},"data":[0,0,0,0,0,0,0,0,0,0,0,0,0,0,0,0,0,0,0,0,0,0,0,0,0,0,0,0,0,0,0,0,0,0,0,0,0,0,0,0,0,0,0,0,0,0,0,0,0,0,0,0,0,0,0,0,0,0,2.0387,2.0387,0,2.0475,2.0476,2.0477,2.047,2.0468,2.0467,2.0466,2.056,2.0564,2.0568,0,0,0,0,0,0,0,0,0,0,0,0,0,2.0217,2.0221,2.0386,2.0388,2.0389,2.0474,2.0476,2.0477,2.047,2.0468,2.0467,2.0465,2.0559,2.0564,2.0568,0,0,0,0,0,0,0,0,0,0,0,0,0,2.0297,2.0222,2.0386,2.0395,2.0397,2.0474,2.0476,2.0477,2.047,2.0468,2.0466,2.0464,2.0558,2.0563,2.0569,2.0644,0,0,2.0586,2.0589,0,0,0,0,0,0,0,0,2.0292,2.0303,2.0393,2.0395,2.0397,2.0459,2.0451,2.0533,2.0471,2.0443,2.0466,2.0464,2.0529,2.0537,2.0558,2.0648,2.0652,2.0587,2.059,2.0592,2.0594,0,0,0,0,0,0,0,2.0287,2.0299,2.0421,2.0394,2.0397,2.0397,2.0406,2.0466,2.0496,2.0445,2.0445,2.0455,2.0529,2.0552,2.056,2.0654,2.0586,2.0591,2.0595,2.0597,2.0813,2.0815,0,0,0,0,0,0,2.0279,2.0295,2.0419,2.0424,2.0338,2.0402,2.0412,2.0441,2.0495,2.0502,2.0457,2.0454,2.0544,2.0553,2.0563,2.0656,2.0592,2.0598,2.0601,2.0811,2.0813,2.0816,0,0,0,0,0,0,2.0275,2.029,2.0415,2.0359,2.0375,2.0407,2.044,2.0444,2.0467,2.0504,2.051,2.0474,2.0542,2.0555,2.0624,2.066,2.06,2.0605,2.0808,2.0812,2.0815,2.0842,0,0,0,0,0,0,2.027,2.0288,2.0316,2.036,2.0378,2.0473,2.0442,2.0447,2.0476,2.0474,2.0522,2.0528,2.0542,2.0616,2.063,2.0666,2.061,2.0805,2.0809,2.0814,2.0838,2.0846,2.0853,0,0,0,0,0,2.0264,2.0321,2.0317,2.0332,2.0413,2.0475,2.0486,2.0499,2.0479,2.0508,2.0532,2.0527,2.0653,2.0623,2.0639,2.0677,2.0803,2.0808,2.0813,2.0835,2.0845,2.0853,0,0,0,0,0,0,2.0281,2.0327,2.0323,2.0395,2.0431,2.0474,2.0511,2.0509,2.0552,2.0549,2.0564,2.0575,2.0645,2.0668,2.0633,2.0754,2.0725,2.0734,2.0737,2.0746,2.0753,2.0747,2.0614,0,0,0,0,0,2.0293,2.0338,2.0376,2.0436,2.0454,2.0479,2.0507,2.0514,2.0552,2.0568,2.0597,2.0636,2.0685,2.0716,2.0763,2.0841,2.0853,2.0876,2.0883,2.0889,2.0897,2.0942,2.0954,2.0833,2.0833,2.0833,0,0,2.0319,2.0349,2.0377,2.044,2.0469,2.0517,2.0492,2.0544,2.058,2.0576,2.0643,2.0666,2.0711,2.0785,2.0819,2.0806,2.0933,2.0896,2.09,2.0905,2.0949,2.096,2.097,2.0837,2.0836,2.0836,0,0,2.0391,2.0417,2.0471,2.05,2.0543,2.056,2.0573,2.0616,2.0631,2.0698,2.0696,2.0741,2.0823,2.0856,2.0883,2.0968,2.0966,2.0983,2.1022,2.1066,2.1076,2.1084,2.1117,2.1128,2.099,2.099,2.099,0,2.0418,2.0488,2.0499,2.0552,2.0581,2.0578,2.0634,2.0662,2.0719,2.074,2.0724,2.0829,2.0859,2.0942,2.0962,2.0984,2.1001,2.0978,2.1073,2.1082,2.109,2.1121,2.1133,2.0992,2.0992,2.0992,2.0992,0,2.0521,2.057,2.0609,2.0663,2.0696,2.075,2.0771,2.0803,2.0808,2.0827,2.0896,2.0932,2.0986,2.1006,2.1011,2.1091,2.1082,2.1069,2.1041,2.1103,2.1133,2.1145,2.0995,2.0994,2.0994,2.0993,0,0,2.0607,2.0666,2.068,2.0705,2.0753,2.0793,2.0847,2.0899,2.0928,2.0968,2.1016,2.1086,2.1075,2.1106,2.1115,2.1153,2.1222,2.1137,2.1138,2.1153,2.1314,2.1325,2.1338,2.1219,2.1222,2.1223,2.1311,0,2.0685,2.078,2.0792,2.0877,2.0925,2.0923,2.0971,2.1006,2.1026,2.107,2.1092,2.1142,2.1123,2.1142,2.118,2.1205,2.1254,2.1199,2.1267,2.1269,2.1257,2.1354,2.1365,2.1446,2.1323,2.1325,2.1326,0,2.0789,2.083,2.092,2.0963,2.0983,2.1026,2.1076,2.1117,2.1159,2.117,2.1205,2.1209,2.1268,2.1236,2.1319,2.1281,2.1309,2.1326,2.133,2.1338,2.1303,2.1367,2.1472,2.1485,2.1344,2.1343,2.1341,0,2.0845,2.0924,2.0988,2.1009,2.106,2.1091,2.1114,2.1153,2.1184,2.1228,2.1249,2.1299,2.1328,2.1368,2.1386,2.1361,2.1469,2.1438,2.1482,2.1482,2.1507,2.1505,2.162,2.1521,2.1521,2.1521,2.1521,0,2.0933,2.0988,2.1014,2.1054,2.1117,2.1131,2.1194,2.1216,2.1251,2.1297,2.1298,2.1341,2.1362,2.1409,2.1424,2.1492,2.1504,2.1517,2.1521,2.1518,2.1517,2.1539,2.1534,2.1524,2.1524,2.1523,2.1522,0,2.1007,2.1026,2.1097,2.1139,2.1151,2.1196,2.1233,2.1273,2.1291,2.135,2.1364,2.1394,2.145,2.1472,2.154,2.155,2.1629,2.1627,2.1615,2.1617,2.166,2.1657,2.1795,2.1815,2.1701,2.1702,2.1703,0,2.1063,2.1105,2.1152,2.1182,2.1206,2.1254,2.1286,2.1301,2.1335,2.1385,2.142,2.1475,2.152,2.161,2.1639,2.1692,2.1693,2.1737,2.1701,2.1697,2.1696,2.1694,2.17,2.1745,2.1746,2.1747,2.1748,0,2.116,2.1168,2.1212,2.1261,2.1299,2.1338,2.1376,2.1402,2.1423,2.1461,2.1517,2.1552,2.1622,2.1678,2.1732,2.1758,2.1758,2.1758,2.1772,2.1771,2.1763,2.1771,2.1636,2.1756,2.1755,2.1754,2.1754,2.1754,2.1229,2.1267,2.1306,2.1357,2.1387,2.1423,2.1463,2.1486,2.1533,2.159,2.1597,2.1658,2.17,2.1773,2.1801,2.185,2.1839,2.1858,2.1863,2.1868,2.1873,2.1753,2.186,2.186,2.186,2.186,2.1859,0,2.1328,2.1353,2.1399,2.1453,2.1493,2.1486,2.1529,2.1564,2.1617,2.1656,2.17,2.1766,2.182,2.1853,2.1909,2.1942,2.1944,2.1956,2.1955,2.1962,2.1878,2.1862,2.1954,2.1954,2.1954,2.1954,2.1954,2.1954,2.1385,2.1451,2.1463,2.1545,2.157,2.1628,2.1654,2.1688,2.1719,2.1792,2.1836,2.1857,2.1894,2.1952,2.2003,2.2011,2.2033,2.2047,2.2055,2.1977,2.1967,2.1958,2.1943,2.2051,2.2051,2.2135,2.2136,2.2136]}]]